Location: Atbuku
(36.4936°N, 30.4362°E)
Time: 16:22:52
(UTC+00:00)

CZ-2D R/B - Pass Details

Date: 11 December 2025
Orbit: 524 x 598 km, 98.0° (Epoch: 16 January)

Event Time Altitude Azimuth Distance (km) Brightness Sun altitude
Rises 15:52:05 0° 148° (SSE) 2,827 6.8 -13.5°
Reaches altitude 10° 15:54:21 10° 140° (SE) 1,927 5.9 -14.0°
Maximum altitude 15:58:13 37° 73° (ENE) 926 3.9 -14.7°
Drops below altitude 10° 16:02:04 10° 5° (N) 1,919 5.9 -15.4°
Sets 16:04:19 0° 357° (N) 2,814 6.8 -15.9°
